"Pseudo-MPEC" for C1H8162

Created 2019 Dec 7 7:07:06 UT using Find_Orb

Click here for an explanation of pseudo-MPECs

 
 Astrometry: 
     C1H8162  C2019 12 02.21090 02 36 38.46 +30 20 29.8    ~C25q 20.6 GVNEOCPG96
     C1H8162  C2019 12 02.21618 02 36 42.04 +30 19 45.6    ~C25q 21.2 GVNEOCPG96
     C1H8162  C2019 12 02.22146 02 36 45.62 +30 19 01.0    ~C25q 21.4 GVNEOCPG96
     C1H8162  C2019 12 02.22666 02 36 49.08 +30 18 17.6    ~C25q 21.6 GVNEOCPG96
     C1H8162  C2019 12 02.31555 02 37 48.79 +30 05 48.5    ~C287 21.1 GVNEOCPI52
     C1H8162  C2019 12 02.31888 02 37 51.03 +30 05 19.6    ~C287 21.5 GVNEOCPI52
     C1H8162  C2019 12 02.32221 02 37 53.25 +30 04 51.9    ~C287 21.3 GVNEOCPI52
     C1H8162  C2019 12 02.32553 02 37 55.47 +30 04 23.5    ~C287 21.7 GVNEOCPI52

Station data:
(G96) Mt. Lemmon Survey  (N32.442754 W110.788720)  US/Arizona.  Observers T.
   A. Pruyne, B. M. Africano, E. J. Christensen, G. A. Farneth, D. C. Fuls,
   A. R. Gibbs, A. D. Grauer, H. Gröller, J. A. Johnson, R. A. Kowalski, S.
   M. Larson, G. J. Leonard, D. Rankin, R. L. Seaman, F. C. Shelly. 1.5-m
   reflector + 10K CCD.
(I52) Steward Observatory, Mt. Lemmon Station  (N32.442547 W110.788920)
   US/Arizona.  Observers T. A. Pruyne, B. M. Africano, E. J. Christensen, G.
   A. Farneth, D. C. Fuls, A. R. Gibbs, A. D. Grauer, H. Gröller, J. A.
   Johnson, R. A. Kowalski, S. M. Larson, G. J. Leonard, D. Rankin, R. L.
   Seaman, F. C. Shelly. 1.0-m reflector + CCD.

Orbital elements:  C1H8162
   Perihelion 2019 Oct 1.955363 +/- 18.8 TT = 22:55:43 (JD 2458758.455363)
Epoch 2019 Dec  2.0 TT = JDT 2458819.5   Earth MOID: 0.0356   AutoNEOCP
M  44.14569149 +/- 17               (J2000 ecliptic)
n   0.72317068 +/- 0.36             Peri.   98.54218 +/- 30
a   1.22925554 +/- 0.407            Node   254.74892 +/- 1.9
e   0.2961010 +/- 0.227             Incl.    7.16934 +/- 5.7
P   1.36/497.80d           H 26.4   G  0.15   U 12.1  SR
q 0.86527174 +/- 0.152    Q 1.59323934 +/- 49.3
From 8 observations 2019 Dec. 2 (2.8 hr); mean residual 0".23
Residuals in arcseconds: 
191202 G96  .18-  .28+    191202 G96  .21-  .20-    191202 I52  .08-  .19+    
191202 G96  .05+  .17+    191202 I52  .19+  .24+    191202 I52  .28-  .00     
191202 G96  .32+  .30-    191202 I52  .19+  .39-    

Ephemerides (geocentric):
Date (UTC) HH   RA              Dec         delta   r     elong  mag " sig PA
---- -- -- --  -------------   -----------  ------ ------ -----  --- ---- ---
2019 12 07 07  03 19 07.889   +21 20 47.35  .08501 1.0646 158.2 22.2 7379  48
2019 12 07 08  03 19 22.087   +21 17 31.81  .08522 1.0648 158.2 22.2 7475  48
2019 12 07 09  03 19 36.210   +21 14 17.18  .08544 1.0650 158.2 22.2 7571  48
2019 12 07 10  03 19 50.260   +21 11 03.47  .08565 1.0652 158.2 22.2 7668  48
2019 12 07 11  03 20 04.238   +21 07 50.66  .08586 1.0654 158.2 22.3 7764  48
2019 12 07 12  03 20 18.143   +21 04 38.76  .08608 1.0656 158.2 22.3 7861  48
2019 12 07 13  03 20 31.976   +21 01 27.76  .08629 1.0658 158.2 22.3 7958  48
2019 12 07 14  03 20 45.738   +20 58 17.65  .08651 1.0660 158.2 22.3 8055  48
2019 12 07 15  03 20 59.429   +20 55 08.43  .08672 1.0662 158.2 22.3 8153  48
2019 12 07 16  03 21 13.051   +20 52 00.09  .08694 1.0664 158.2 22.3 8250  48
2019 12 07 17  03 21 26.603   +20 48 52.63  .08715 1.0666 158.2 22.3 8348  48
2019 12 07 18  03 21 40.086   +20 45 46.05  .08737 1.0668 158.2 22.3 8446  48
2019 12 07 19  03 21 53.500   +20 42 40.33  .08758 1.0670 158.2 22.3 8545  48
2019 12 07 20  03 22 06.847   +20 39 35.48  .08780 1.0672 158.2 22.3 8643  48
2019 12 07 21  03 22 20.126   +20 36 31.49  .08801 1.0674 158.2 22.3 8742  48
2019 12 07 22  03 22 33.339   +20 33 28.36  .08823 1.0675 158.2 22.3 8841  48
2019 12 07 23  03 22 46.485   +20 30 26.08  .08845 1.0677 158.2 22.3 8940  48
2019 12 08 00  03 22 59.566   +20 27 24.65  .08866 1.0679 158.2 22.3 9039  48
2019 12 08 01  03 23 12.581   +20 24 24.05  .08888 1.0681 158.2 22.3 9138  48
2019 12 08 02  03 23 25.532   +20 21 24.30  .08910 1.0683 158.2 22.3 9238  48
2019 12 08 03  03 23 38.418   +20 18 25.38  .08931 1.0685 158.2 22.3 9337  48
2019 12 08 04  03 23 51.241   +20 15 27.29  .08953 1.0687 158.2 22.3 9437  48
2019 12 08 05  03 24 04.000   +20 12 30.02  .08975 1.0689 158.2 22.4 9537  48
2019 12 08 06  03 24 16.697   +20 09 33.57  .08997 1.0691 158.2 22.4 9637  48
2019 12 08 07  03 24 29.331   +20 06 37.94  .09018 1.0693 158.2 22.4 9737  48
2019 12 08 08  03 24 41.903   +20 03 43.12  .09040 1.0695 158.2 22.4 9837  48
2019 12 08 09  03 24 54.414   +20 00 49.11  .09062 1.0697 158.2 22.4 9938  48
2019 12 08 10  03 25 06.865   +19 57 55.90  .09084 1.0699 158.2 22.4 167'  48
2019 12 08 11  03 25 19.255   +19 55 03.48  .09106 1.0701 158.2 22.4 169'  48
2019 12 08 12  03 25 31.585   +19 52 11.87  .09128 1.0703 158.2 22.4 171'  48
2019 12 08 13  03 25 43.855   +19 49 21.04  .09150 1.0705 158.2 22.4 172'  48
2019 12 08 14  03 25 56.067   +19 46 31.00  .09172 1.0707 158.2 22.4 174'  49
2019 12 08 15  03 26 08.219   +19 43 41.74  .09194 1.0709 158.2 22.4 176'  49
2019 12 08 16  03 26 20.314   +19 40 53.25  .09215 1.0711 158.2 22.4 177'  49
2019 12 08 17  03 26 32.351   +19 38 05.54  .09237 1.0713 158.2 22.4 179'  49
2019 12 08 18  03 26 44.331   +19 35 18.60  .09259 1.0715 158.2 22.4 181'  49
2019 12 08 19  03 26 56.254   +19 32 32.43  .09282 1.0717 158.2 22.4 182'  49
2019 12 08 20  03 27 08.121   +19 29 47.01  .09304 1.0719 158.2 22.4 184'  49
2019 12 08 21  03 27 19.931   +19 27 02.35  .09326 1.0721 158.1 22.4 186'  49
2019 12 08 22  03 27 31.686   +19 24 18.45  .09348 1.0723 158.1 22.4 188'  49
2019 12 08 23  03 27 43.386   +19 21 35.29  .09370 1.0725 158.1 22.5 189'  49
2019 12 09 00  03 27 55.031   +19 18 52.88  .09392 1.0727 158.1 22.5 191'  49
2019 12 09 01  03 28 06.622   +19 16 11.21  .09414 1.0729 158.1 22.5 193'  49
2019 12 09 02  03 28 18.159   +19 13 30.28  .09436 1.0731 158.1 22.5 194'  49
2019 12 09 03  03 28 29.642   +19 10 50.08  .09458 1.0733 158.1 22.5 196'  49
2019 12 09 04  03 28 41.072   +19 08 10.60  .09481 1.0735 158.1 22.5 198'  49
2019 12 09 05  03 28 52.450   +19 05 31.86  .09503 1.0737 158.1 22.5 199'  49
2019 12 09 06  03 29 03.775   +19 02 53.83  .09525 1.0739 158.1 22.5 201'  49